Location: Bohy
(49.9380°N, 13.5753°E)
Time: 00:13:29
(UTC+00:00)

Cosmos 1346 Rocket - Pass Details

Date: 19 May 2025
Orbit: 485 x 499 km, 81.2° (Epoch: 22 June)

Event Time Altitude Azimuth Distance (km) Brightness Sun altitude
Rises 19:31:30 0° 353° (N) 2,589 7.1 -6.1°
Reaches altitude 10° 19:33:44 10° 1° (N) 1,698 5.9 -6.3°
Maximum altitude 19:37:15 40° 72° (ENE) 737 3.3 -6.7°
Drops below altitude 10° 19:40:44 10° 144° (SE) 1,676 4.6 -7.2°
Enters shadow 19:40:58 - 145° (SE) 1,763 4.8 -7.2°
